Theta_e
310 310 309 310 310 310 309 310 310 310 310 311 311 311 311 312 312 312 313 316 316 317 318 315 315 317 314 316 320 321 317 319 321 324 326 339 343 342 343 348 353 351 346 344 339
310 309 309 310 310 310 310 310 310 310 310 311 311 310 311 312 312 315 319 317 320 319 319 316 317 318 316 317 317 316 314 317 321 323 324 328 344 347 346 344 349 351 348 343 338
310 310 309 310 310 310 310 311 310 310 311 311 310 310 312 312 313 325 318 316 320 319 318 314 314 315 317 318 318 317 315 316 320 322 324 323 339 345 348 348 342 348 345 340 337
310 310 310 310 310 310 310 311 310 310 310 310 311 311 311 312 323 324 319 318 317 316 314 313 315 316 316 314 319 315 318 318 320 322 323 321 340 339 344 345 350 348 342 339 338
310 310 310 310 310 310 310 311 310 310 310 311 311 311 311 317 321 323 320 318 318 318 316 314 316 317 314 316 319 316 316 320 321 322 322 323 327 338 337 346 339 341 344 341 341
310 310 310 310 311 310 311 311 311 311 311 311 313 313 312 323 322 321 320 320 319 319 317 317 317 318 318 317 316 320 319 320 321 321 321 320 331 344 343 343 340 343 345 344 342
310 310 311 311 311 311 311 311 311 311 312 314 315 315 315 316 321 320 319 318 321 320 320 320 320 319 319 316 320 320 317 316 318 320 319 322 319 334 343 338 336 339 346 345 344
310 311 311 311 311 311 311 311 312 313 314 314 315 316 319 322 320 318 318 320 320 319 319 318 318 318 319 319 318 316 317 316 316 318 320 321 319 342 339 339 341 338 343 346 343
310 311 311 311 311 311 311 317 319 319 317 320 319 325 325 323 322 321 318 318 321 320 319 319 318 318 318 316 313 315 316 319 319 318 319 320 320 338 344 338 337 337 340 346 343
310 311 311 311 311 312 318 321 323 324 322 324 320 322 325 324 323 322 322 320 320 322 321 320 318 314 313 313 315 317 316 318 322 322 322 321 322 328 349 350 343 341 345 345 342
310 311 311 311 311 314 321 322 324 327 323 326 330 326 326 324 323 322 322 321 320 322 321 321 316 313 313 314 316 317 318 319 322 322 321 321 323 328 331 349 349 348 348 346 342
311 311 311 311 312 316 321 325 323 321 321 324 326 328 325 322 323 323 323 320 321 321 322 321 317 319 320 319 318 317 318 319 321 322 322 319 321 328 330 344 348 348 348 347 344
311 311 311 311 313 318 322 326 321 322 323 326 328 325 323 323 324 324 324 322 321 321 321 321 322 323 323 322 322 320 320 320 320 321 320 320 319 321 327 342 347 347 347 347 346
311 311 311 312 323 325 323 325 320 321 324 330 327 325 324 324 326 326 325 325 323 322 322 322 323 324 323 322 321 319 320 321 321 319 318 320 318 318 323 340 341 346 346 345 346
311 311 312 315 316 320 321 320 321 325 339 330 326 326 327 326 327 327 326 327 325 329 329 329 326 327 329 329 329 329 328 320 320 319 322 321 319 317 319 320 332 342 345 344 343
312 313 314 318 319 323 322 321 324 330 338 329 325 324 324 326 326 325 324 325 329 328 328 326 326 326 323 319 326 327 327 328 322 321 320 322 323 321 329 329 328 325 330 340 342
321 320 321 323 322 325 325 325 332 336 329 324 323 323 323 324 326 322 320 324 325 326 324 324 324 317 316 316 317 322 326 329 331 329 323 328 331 329 328 327 327 326 328 337 335
320 320 324 323 324 325 326 328 335 325 322 321 320 321 324 319 320 319 318 320 318 318 320 320 320 316 315 315 314 316 327 328 337 337 330 328 333 331 325 324 323 324 324 334 338
320 320 326 322 320 325 327 333 324 322 318 318 319 320 320 318 317 316 318 321 318 315 315 316 315 315 315 315 314 314 315 322 327 325 329 327 328 331 324 323 323 322 322 322 335
320 322 327 321 320 323 327 326 323 318 316 318 318 319 318 317 316 315 317 317 317 315 315 315 315 316 315 315 315 313 314 314 324 327 330 328 333 331 324 322 322 321 321 321 326
321 327 321 321 321 325 327 323 320 317 316 318 318 317 318 316 316 315 317 315 315 314 315 314 316 316 314 314 314 315 314 317 318 326 330 333 332 324 322 320 321 321 321 321 322
321 331 321 319 324 327 320 320 317 317 315 316 318 317 318 317 318 317 317 316 316 316 317 316 314 315 315 317 317 316 319 319 322 319 321 326 322 319 319 318 319 320 321 321 323
322 328 322 320 324 324 321 317 315 317 317 317 318 317 318 318 319 318 317 317 315 317 316 316 315 318 318 316 316 318 319 318 319 318 319 322 322 320 318 317 319 322 321 322 324
323 328 322 320 319 322 322 319 318 316 317 316 317 317 317 317 317 319 318 317 316 316 315 317 319 321 318 318 316 319 318 317 318 320 322 321 320 318 317 316 315 320 320 320 319
327 324 316 321 319 320 319 318 318 318 316 318 318 319 316 317 318 319 316 316 316 317 319 319 319 318 317 317 318 317 315 314 318 320 320 319 319 317 316 315 315 318 319 317 314
318 320 317 320 319 320 316 321 317 318 316 319 317 317 315 317 318 317 315 315 317 318 318 318 317 318 317 317 318 316 315 314 315 316 316 315 317 314 315 314 314 317 318 315 314
318 317 319 321 320 321 320 319 317 315 316 316 315 315 317 317 315 314 313 314 316 319 318 317 316 317 317 317 317 321 315 315 314 314 315 315 315 315 313 313 313 313 316 315 314
Wind_Speed
18 18 18 18 18 18 17 16 16 16 16 16 17 17 19 21 22 24 27 13 11 6 9 12 10 11 9 14 17 21 5 11 13 19 12 11 7 37 48 33 26 26 37 44 42
17 18 18 18 18 18 17 17 16 16 16 16 16 16 18 21 24 26 12 9 12 12 15 13 10 14 12 11 9 6 4 10 14 18 13 17 12 25 6 6 7 26 33 49 45
17 17 17 17 18 17 17 17 16 15 15 15 15 15 17 19 22 5 10 7 9 14 16 14 17 22 23 23 24 16 11 11 24 30 25 19 7 5 25 5 13 15 45 47 45
17 17 17 17 18 17 16 16 15 14 14 14 14 14 15 15 2 6 9 5 3 5 13 11 11 12 5 8 25 8 21 24 28 34 27 13 7 4 7 14 23 14 36 37 41
17 16 16 16 17 16 15 15 14 13 13 14 13 12 12 8 13 4 9 5 5 6 7 9 11 19 8 9 17 7 10 28 31 27 28 26 5 7 15 26 44 3 17 31 32
16 16 15 15 16 15 14 14 13 13 13 12 11 11 10 7 3 4 9 4 5 5 6 9 12 19 21 17 8 21 17 20 27 27 28 10 6 13 9 33 32 26 22 26 27
15 15 15 15 16 15 13 13 13 13 12 11 12 12 13 16 5 3 7 8 6 6 5 10 16 25 24 9 19 23 10 11 10 17 13 22 10 7 33 26 27 33 31 27 29
15 14 14 14 15 14 14 14 13 14 13 12 11 11 10 4 3 9 9 8 7 8 11 15 14 15 10 17 17 9 6 6 9 10 18 11 8 14 40 36 25 16 24 32 34
13 13 13 13 14 13 12 13 14 13 11 10 5 8 12 6 11 4 9 12 10 5 8 9 11 7 10 6 7 6 7 10 10 11 9 8 9 12 39 33 29 34 42 36 38
12 12 12 12 12 11 10 16 12 10 6 7 6 8 7 4 5 2 5 7 11 7 10 11 6 2 4 0 5 8 7 9 11 8 13 13 10 10 41 35 37 40 40 38 37
10 10 10 9 9 7 9 11 12 3 12 12 9 11 14 10 2 5 7 7 8 11 6 15 3 8 14 13 10 14 13 13 15 13 5 15 17 12 20 31 32 35 37 38 41
8 8 8 8 6 5 9 10 11 12 12 18 24 25 8 5 7 10 7 3 11 8 9 5 10 16 15 14 15 16 16 16 9 10 5 10 8 11 8 22 40 39 33 33 38
8 7 6 5 3 3 8 5 12 14 5 16 15 6 3 3 8 17 9 11 9 9 11 8 13 10 13 8 8 8 6 6 8 13 7 7 8 6 5 19 31 35 32 31 38
7 6 5 2 3 6 14 10 9 12 3 5 0 5 8 8 5 7 3 5 4 9 10 7 11 11 12 8 11 5 10 10 10 7 9 3 9 8 6 9 15 28 47 50 49
7 6 4 3 8 6 8 11 15 2 4 15 3 3 7 6 6 6 16 6 8 5 6 12 15 14 17 20 20 14 26 10 11 8 3 9 3 8 8 9 9 16 39 51 56
8 7 5 5 7 6 13 13 9 1 2 6 12 12 14 8 13 18 18 20 11 7 10 10 26 5 10 20 17 10 25 12 6 1 4 4 7 6 8 12 25 32 28 36 57
10 9 8 7 6 7 11 9 3 1 3 9 14 10 9 8 5 7 8 11 8 6 8 8 5 17 31 25 20 15 14 6 6 5 3 20 9 5 15 17 18 25 45 28 60
14 17 15 7 6 6 7 2 3 12 10 12 10 16 5 16 11 12 10 7 17 13 4 6 7 20 19 12 8 15 6 2 5 6 11 17 6 3 14 27 39 46 52 69 57
16 17 13 7 11 5 6 2 3 6 9 10 12 7 9 14 8 8 5 12 7 11 4 5 4 14 12 15 6 8 5 8 14 15 4 7 9 5 23 24 33 39 47 52 26
18 20 12 9 5 8 2 4 5 8 7 8 7 8 7 10 8 9 4 7 5 12 11 6 6 7 16 14 13 8 9 7 1 5 4 3 4 5 14 16 18 23 31 43 43
17 8 2 10 7 8 3 4 8 12 9 6 6 5 7 8 8 8 7 7 8 7 13 7 4 9 9 5 13 10 7 6 2 2 2 3 2 3 4 8 10 12 23 33 38
11 3 5 9 2 1 3 4 4 6 12 5 4 5 6 7 5 6 8 7 15 14 5 3 2 3 10 11 13 11 10 11 4 8 3 4 2 4 3 3 11 14 11 16 24
10 10 5 9 3 4 3 7 4 5 5 5 4 4 3 4 3 7 5 9 16 5 3 2 3 4 9 7 14 6 13 10 5 4 3 3 2 4 12 17 17 16 24 15 12
5 3 5 10 13 5 5 1 5 4 4 4 2 5 4 5 7 5 7 12 18 9 5 6 2 3 4 9 11 4 12 11 4 2 3 1 5 9 7 9 20 21 20 14 18
3 1 3 3 7 6 5 5 6 4 2 6 3 3 5 3 5 6 7 7 13 5 5 3 2 6 9 14 9 7 7 7 6 5 1 7 4 6 7 13 21 17 13 18 16
8 8 11 7 1 5 4 4 2 3 1 1 1 6 6 4 4 4 5 4 4 6 6 2 2 4 7 11 9 3 6 7 7 6 5 10 3 7 11 17 18 14 11 16 20
17 13 7 8 4 3 2 2 2 4 6 6 0 3 6 6 8 11 12 13 9 4 5 1 2 2 6 6 6 3 3 3 3 2 2 3 3 2 5 9 9 11 3 9 15
Wind_Direction
324 324 326 328 326 325 320 318 316 315 312 312 311 310 308 305 300 295 284 296 251 233 291 266 248 260 250 253 250 267 258 257 254 265 287 232 147 209 194 208 173 189 160 156 157
319 322 326 326 326 326 322 318 317 317 312 310 311 312 311 310 311 299 308 260 235 252 279 277 244 224 216 238 240 213 246 246 260 271 278 297 104 155 140 250 182 141 156 155 158
316 320 321 323 323 324 322 319 318 313 312 311 311 314 314 315 319 326 358 351 249 250 263 254 256 282 234 229 231 246 252 264 269 277 294 315 322 136 129 202 16 148 144 155 160
314 316 319 323 324 325 321 316 314 313 312 309 312 315 315 310 304 324 343 7 30 245 237 232 260 282 274 240 239 221 250 263 267 271 286 287 157 296 189 116 76 180 146 155 165
309 313 316 319 320 320 318 315 313 312 311 312 314 316 319 303 274 288 326 293 288 269 240 208 253 271 266 270 267 227 245 258 268 284 270 282 287 129 100 113 110 40 165 168 175
305 308 310 315 317 320 317 312 311 311 312 313 315 318 311 268 308 295 332 330 284 315 233 193 237 250 260 265 266 275 267 259 270 288 298 273 155 117 140 135 144 159 182 180 186
301 302 306 313 317 318 313 310 312 310 308 307 309 310 289 264 242 302 310 271 302 283 270 241 264 270 275 304 288 286 299 293 285 288 274 293 312 144 151 151 155 161 178 195 195
298 300 304 310 315 314 313 312 313 307 305 298 299 304 266 274 234 262 246 278 240 249 273 289 301 314 316 310 315 308 301 255 260 267 284 281 261 141 159 159 159 170 189 204 195
298 299 301 306 314 313 316 315 309 303 302 291 291 300 272 298 260 245 221 249 227 245 264 287 313 309 312 326 311 296 264 256 269 237 250 233 243 119 171 174 164 182 186 209 200
298 298 302 309 315 315 319 324 309 301 297 293 221 294 275 275 189 327 260 254 278 264 238 232 236 212 305 139 253 270 299 308 292 287 249 261 224 213 172 169 174 194 193 192 181
302 300 301 306 313 310 321 344 349 21 305 244 255 256 298 317 215 266 198 215 278 267 256 240 176 227 229 210 225 243 266 268 271 281 338 303 221 205 215 171 170 182 177 188 169
311 308 309 314 310 296 325 332 4 322 303 282 272 250 286 270 267 222 169 197 240 241 252 276 219 243 237 241 217 233 245 258 273 295 305 299 299 252 205 173 178 183 183 157 159
321 315 309 311 304 288 295 323 360 332 287 293 242 189 244 217 267 169 179 199 243 267 261 250 265 272 256 271 274 282 273 289 284 296 296 304 302 285 249 187 179 183 176 173 163
331 325 324 319 321 310 306 360 334 318 315 245 122 152 217 231 254 69 307 283 253 254 284 284 311 317 323 304 315 263 262 274 279 274 271 192 281 297 300 190 187 159 178 183 185
1 358 347 291 310 325 15 343 322 351 12 326 124 257 281 277 17 39 346 287 275 3 21 311 347 4 24 354 355 0 346 264 249 266 293 315 348 290 317 305 230 180 183 187 202
20 18 1 330 290 331 353 331 310 90 244 307 23 350 344 10 29 357 7 5 40 11 334 357 21 36 11 355 5 349 2 340 314 188 286 264 319 288 27 3 14 5 336 202 190
6 348 327 309 333 0 339 318 9 237 117 0 350 337 307 293 56 35 1 36 32 12 2 336 42 8 22 352 349 8 30 350 347 348 259 9 342 75 335 14 9 7 354 335 201
330 326 308 335 335 16 337 345 264 14 27 354 333 300 69 38 22 21 5 63 43 37 1 359 335 13 349 347 317 332 88 313 315 338 299 312 253 315 356 7 12 16 7 8 193
325 327 307 4 340 313 285 309 45 11 356 346 317 10 5 23 14 8 27 70 64 56 50 347 313 324 338 351 353 312 308 226 195 255 318 267 278 327 348 1 8 13 14 12 28
329 325 301 345 306 292 325 294 102 58 347 340 22 22 4 17 9 351 10 41 44 50 39 325 315 350 342 320 341 347 304 336 117 198 250 278 66 334 350 339 359 11 16 12 14
331 328 328 318 284 277 232 79 93 76 16 28 12 350 23 18 332 341 64 88 71 28 19 56 47 311 334 340 322 341 9 354 334 95 299 293 253 247 326 345 356 8 19 18 12
333 308 330 347 341 211 74 37 349 50 23 8 60 338 55 350 335 313 15 32 51 38 44 44 252 326 279 303 4 22 27 30 46 321 276 187 304 35 336 322 357 7 26 30 22
314 266 15 0 42 7 132 108 89 30 61 10 9 32 28 313 338 337 359 30 34 77 108 345 333 316 325 330 355 52 25 12 357 22 3 3 24 359 359 8 3 24 13 32 78
310 320 25 73 56 38 23 134 150 125 110 350 311 292 31 359 319 317 355 19 11 110 168 137 225 289 291 318 318 19 16 11 325 354 320 264 286 357 11 28 15 17 44 90 131
311 320 32 349 19 344 46 344 321 127 142 159 284 300 38 320 300 297 17 359 354 78 9 116 349 337 330 302 324 54 6 20 33 68 324 356 43 316 347 45 23 2 91 88 90
18 2 334 286 88 290 147 199 318 16 121 129 312 359 326 308 40 350 1 340 266 0 340 109 271 292 294 315 98 81 15 1 8 24 339 331 96 345 26 38 21 22 137 119 128
14 337 340 285 254 241 150 69 8 95 274 203 22 341 312 23 345 306 284 270 244 257 265 214 202 285 274 319 341 152 162 9 327 23 301 341 282 269 19 61 50 7 87 174 163